IK0XIH-3 Weather Reports


time (UTC)temp
C
wind
direction
speed
KPH
gust
KPH
rain 1hr
cm
rain 24hr
cm
rain mn
cm
humidity
%
barometer
mb
20260906083325 30 271 3.2 6.4 0.00 0.00 0.00 58 1017.8
20260906082826 30 272 0.0 6.4 0.00 0.00 0.00 59 1017.7
20260906082325 30 180 0.0 9.7 0.00 0.00 0.00 58 1017.7
20260906081828 30 99 4.8 9.7 0.00 0.00 0.00 59 1017.7
20260906081329 30 149 0.0 4.8 0.00 0.00 0.00 60 1017.6
20260906080826 29 144 3.2 6.4 0.00 0.00 0.00 61 1017.6
20260906080325 29 172 3.2 8.0 0.00 0.00 0.00 59 1017.6
20260906075828 29 96 1.6 9.7 0.00 0.00 0.00 61 1017.5
20260906075325 28 150 3.2 4.8 0.00 0.00 0.00 61 1017.5
20260906074828 28 205 3.2 4.8 0.00 0.00 0.00 62 1017.5
20260906074328 28 169 0.0 8.0 0.00 0.00 0.00 62 1017.4
20260906073826 28 174 6.4 8.0 0.00 0.00 0.00 62 1017.4
20260906073325 28 180 0.0 4.8 0.00 0.00 0.00 63 1017.4
20260906072825 28 109 0.0 0.0 0.00 0.00 0.00 65 1017.4
20260906072325 28 92 0.0 0.0 0.00 0.00 0.00 67 1017.4
20260906071828 27 82 0.0 0.0 0.00 0.00 0.00 67 1017.4
20260906071328 27 80 0.0 0.0 0.00 0.00 0.00 67 1017.4
20260906070828 27 75 0.0 0.0 0.00 0.00 0.00 68 1017.4
20260906070328 27 69 0.0 0.0 0.00 0.00 0.00 69 1017.4
20260906065825 27 67 0.0 0.0 0.00 0.00 0.00 69 1017.3
20260906065325 27 66 0.0 0.0 0.00 0.00 0.00 70 1017.3
20260906064828 26 65 0.0 0.0 0.00 0.00 0.00 70 1017.3
20260906064325 26 65 0.0 0.0 0.00 0.00 0.00 71 1017.3
20260906063825 25 65 0.0 0.0 0.00 0.00 0.00 74 1017.3
20260906063325 25 65 0.0 0.0 0.00 0.00 0.00 75 1017.3
20260906062828 25 65 0.0 0.0 0.00 0.00 0.00 76 1017.2
20260906062328 24 65 0.0 0.0 0.00 0.00 0.00 78 1017.2
20260906061825 23 65 0.0 0.0 0.00 0.00 0.00 79 1017.2
20260906061325 23 65 0.0 0.0 0.00 0.00 0.00 81 1017.1
20260906060828 22 65 0.0 0.0 0.00 0.00 0.00 83 1017.1
20260906060325 22 63 0.0 0.0 0.00 0.00 0.00 84 1017.1
20260906055828 21 26 0.0 0.0 0.00 0.00 0.00 86 1017.0
20260906055325 21 349 0.0 0.0 0.00 0.00 0.00 87 1017.0
20260906054829 20 349 0.0 0.0 0.00 0.00 0.00 87 1017.0
20260906054325 20 349 0.0 0.0 0.00 0.00 0.00 88 1016.8
20260906053828 20 349 0.0 0.0 0.00 0.00 0.00 88 1016.8
20260906053325 20 349 0.0 0.0 0.00 0.00 0.00 89 1016.8
20260906052828 19 349 0.0 0.0 0.00 0.00 0.00 89 1016.7
20260906052325 19 349 0.0 0.0 0.00 0.00 0.00 89 1016.7
20260906051828 19 349 0.0 0.0 0.00 0.00 0.00 89 1016.7
20260906051325 19 349 0.0 0.0 0.00 0.00 0.00 89 1016.6
20260906050828 19 349 0.0 0.0 0.00 0.00 0.00 89 1016.6
20260906050325 19 349 0.0 0.0 0.00 0.00 0.00 89 1016.6
20260906045828 18 349 0.0 1.6 0.00 0.00 0.00 88 1016.5
20260906045325 18 349 1.6 3.2 0.00 0.00 0.00 88 1016.5
20260906044828 18 350 0.0 0.0 0.00 0.00 0.00 89 1016.5
20260906044328 18 350 0.0 0.0 0.00 0.00 0.00 89 1016.5
20260906043828 19 350 0.0 0.0 0.00 0.00 0.00 89 1016.5
20260906043325 19 350 0.0 3.2 0.00 0.00 0.00 89 1016.5
20260906042824 19 350 1.6 3.2 0.00 0.00 0.00 89 1016.5
20260906042327 18 350 0.0 0.0 0.00 0.00 0.00 89 1016.5
20260906041827 18 350 0.0 0.0 0.00 0.00 0.00 89 1016.5
20260906041327 19 350 0.0 0.0 0.00 0.00 0.00 88 1016.4
20260906040827 19 350 0.0 0.0 0.00 0.00 0.00 89 1016.4
20260906040327 19 350 0.0 0.0 0.00 0.00 0.00 89 1016.4
20260906035827 19 350 0.0 0.0 0.00 0.00 0.00 89 1016.3
20260906035327 19 350 0.0 0.0 0.00 0.00 0.00 88 1016.3
20260906034827 19 350 0.0 0.0 0.00 0.00 0.00 88 1016.3
20260906034327 19 350 0.0 4.8 0.00 0.00 0.00 88 1016.2
20260906033824 19 348 3.2 4.8 0.00 0.00 0.00 87 1016.2
20260906033327 20 322 0.0 0.0 0.00 0.00 0.00 87 1016.2
20260906032827 20 322 0.0 0.0 0.00 0.00 0.00 86 1016.1
20260906032327 20 322 0.0 3.2 0.00 0.00 0.00 86 1016.1
20260906031827 20 323 1.6 3.2 0.00 0.00 0.00 86 1016.1
20260906031324 20 323 3.2 4.8 0.00 0.00 0.00 86 1016.2
20260906030827 20 323 1.6 3.2 0.00 0.00 0.00 86 1016.2
20260906030324 20 323 1.6 3.2 0.00 0.00 0.00 87 1016.2
20260906025824 20 323 0.0 0.0 0.00 0.00 0.00 86 1016.3
20260906025324 20 323 0.0 0.0 0.00 0.00 0.00 86 1016.3
20260906024824 20 323 0.0 0.0 0.00 0.00 0.00 86 1016.3
20260906024327 20 323 0.0 0.0 0.00 0.00 0.00 86 1016.4
20260906023824 20 323 0.0 0.0 0.00 0.00 0.00 86 1016.4
20260906023327 20 323 0.0 0.0 0.00 0.00 0.00 87 1016.4
20260906022827 20 323 0.0 0.0 0.00 0.00 0.00 87 1016.5
20260906022327 20 323 0.0 0.0 0.00 0.00 0.00 87 1016.5
20260906021824 20 323 0.0 0.0 0.00 0.00 0.00 86 1016.5
20260906021324 20 323 0.0 3.2 0.00 0.00 0.00 85 1016.3
20260906020827 20 323 3.2 3.2 0.00 0.00 0.00 85 1016.3
20260906020327 21 322 3.2 3.2 0.00 0.00 0.00 84 1016.3
20260906015824 21 321 0.0 0.0 0.00 0.00 0.00 84 1016.3
20260906015327 21 321 0.0 1.6 0.00 0.00 0.00 84 1016.3
20260906014824 21 321 1.6 3.2 0.00 0.00 0.00 85 1016.3
20260906014327 21 321 1.6 3.2 0.00 0.00 0.00 85 1016.3
20260906013824 21 321 3.2 3.2 0.00 0.00 0.00 85 1016.3
20260906013327 21 321 1.6 4.8 0.00 0.00 0.00 85 1016.3
20260906012824 21 323 3.2 3.2 0.00 0.00 0.00 84 1016.2
20260906012324 21 323 0.0 1.6 0.00 0.00 0.00 84 1016.2
20260906011824 21 323 0.0 1.6 0.00 0.00 0.00 83 1016.2
20260906011324 21 323 0.0 0.0 0.00 0.00 0.00 84 1016.2
20260906010824 21 323 0.0 1.6 0.00 0.00 0.00 84 1016.2
20260906010327 21 323 1.6 3.2 0.00 0.00 0.00 84 1016.2
20260906005825 21 323 0.0 0.0 0.00 0.00 0.00 84 1016.2
20260906005327 21 323 0.0 0.0 0.00 0.00 0.00 84 1016.2
20260906004824 21 323 0.0 0.0 0.00 0.00 0.00 84 1016.2
20260906004324 21 323 0.0 0.0 0.00 0.00 0.00 84 1016.3
20260906003827 21 323 0.0 1.6 0.00 0.00 0.00 84 1016.3
20260906003324 21 323 1.6 3.2 0.00 0.00 0.00 84 1016.3
20260906002825 21 323 0.0 0.0 0.00 0.00 0.00 84 1016.5
20260906002324 21 323 0.0 0.0 0.00 0.00 0.00 85 1016.5
20260906001824 21 323 0.0 0.0 0.00 0.00 0.00 85 1016.5
20260906001327 21 323 0.0 0.0 0.00 0.00 0.00 85 1016.6
20260906000827 21 323 0.0 0.0 0.00 0.00 0.00 85 1016.6
20260906000326 21 323 0.0 0.0 0.00 0.00 0.00 85 1016.6
20260905235827 21 323 0.0 0.0 0.00 0.00 0.00 85 1016.6
20260905235327 21 323 0.0 0.0 0.00 0.00 0.00 85 1016.6
20260905234824 21 323 0.0 0.0 0.00 0.00 0.00 85 1016.6
20260905234327 21 323 0.0 0.0 0.00 0.00 0.00 85 1016.6
20260905233824 21 323 0.0 0.0 0.00 0.00 0.00 85 1016.6
20260905233327 21 323 0.0 0.0 0.00 0.00 0.00 84 1016.6
20260905232827 21 323 0.0 0.0 0.00 0.00 0.00 85 1016.6
20260905232327 21 323 0.0 0.0 0.00 0.00 0.00 85 1016.6
20260905231824 21 323 0.0 3.2 0.00 0.00 0.00 85 1016.6
20260905231325 21 323 1.6 1.6 0.00 0.00 0.00 85 1016.6
20260905230824 21 323 0.0 0.0 0.00 0.00 0.00 85 1016.6
20260905230327 21 323 0.0 0.0 0.00 0.00 0.00 85 1016.6
20260905225827 21 323 0.0 3.2 0.00 0.00 0.00 85 1016.6
20260905225327 21 323 1.6 3.2 0.00 0.00 0.00 85 1016.6
20260905224826 22 323 0.0 3.2 0.00 0.00 0.00 85 1016.6
20260905224323 22 323 1.6 3.2 0.00 0.00 0.00 85 1016.6
20260905223826 22 323 0.0 3.2 0.00 0.00 0.00 84 1016.6
20260905223324 22 323 0.0 0.0 0.00 0.00 0.00 85 1016.6
20260905222823 22 323 0.0 0.0 0.00 0.00 0.00 85 1016.6
20260905222323 22 323 0.0 3.2 0.00 0.00 0.00 85 1016.6
20260905221823 22 319 0.0 3.2 0.00 0.00 0.00 86 1016.6
20260905221326 22 317 0.0 0.0 0.00 0.00 0.00 86 1016.5
20260905220826 22 317 0.0 0.0 0.00 0.00 0.00 86 1016.5
20260905220326 23 317 0.0 0.0 0.00 0.00 0.00 86 1016.5
20260905215827 23 317 0.0 0.0 0.00 0.00 0.00 85 1016.5
20260905215326 23 317 0.0 0.0 0.00 0.00 0.00 85 1016.5
20260905214823 23 317 0.0 0.0 0.00 0.00 0.00 85 1016.5
20260905214323 23 317 0.0 1.6 0.00 0.00 0.00 85 1016.6
20260905213823 23 317 0.0 0.0 0.00 0.00 0.00 85 1016.6
20260905213323 23 317 0.0 3.2 0.00 0.00 0.00 85 1016.6
20260905212823 23 317 1.6 4.8 0.00 0.00 0.00 86 1016.6
20260905212326 23 317 3.2 6.4 0.00 0.00 0.00 86 1016.6
20260905211826 23 319 4.8 6.4 0.00 0.00 0.00 86 1016.6
20260905211323 23 321 4.8 6.4 0.00 0.00 0.00 85 1016.5
20260905210823 23 323 4.8 4.8 0.00 0.00 0.00 85 1016.5
20260905210326 23 323 4.8 6.4 0.00 0.00 0.00 84 1016.5
20260905205823 23 329 3.2 4.8 0.00 0.00 0.00 84 1016.4
20260905205326 23 331 3.2 4.8 0.00 0.00 0.00 84 1016.4
20260905204826 23 331 3.2 4.8 0.00 0.00 0.00 84 1016.4
20260905204323 23 331 1.6 4.8 0.00 0.00 0.00 83 1016.5
20260905203823 23 331 4.8 4.8 0.00 0.00 0.00 81 1016.5
20260905203323 23 331 1.6 4.8 0.00 0.00 0.00 81 1016.5
20260905202823 24 331 1.6 4.8 0.00 0.00 0.00 79 1016.5
20260905202323 24 5 4.8 4.8 0.00 0.00 0.00 79 1016.5
20260905201823 24 22 3.2 4.8 0.00 0.00 0.00 78 1016.5
20260905201326 25 25 1.6 3.2 0.00 0.00 0.00 78 1016.4
20260905200823 25 26 0.0 3.2 0.00 0.00 0.00 77 1016.4
20260905200323 25 26 0.0 1.6 0.00 0.00 0.00 76 1016.4
20260905195826 25 26 1.6 3.2 0.00 0.00 0.00 76 1016.4
20260905195323 26 26 1.6 3.2 0.00 0.00 0.00 76 1016.4
20260905194823 26 26 1.6 4.8 0.00 0.00 0.00 76 1016.4
20260905194323 26 22 3.2 4.8 0.00 0.00 0.00 76 1016.4
20260905193823 26 18 3.2 4.8 0.00 0.00 0.00 77 1016.4
20260905193323 26 18 1.6 6.4 0.00 0.00 0.00 77 1016.4
20260905192827 26 23 6.4 8.0 0.00 0.00 0.00 77 1016.4
20260905192323 25 19 4.8 4.8 0.00 0.00 0.00 78 1016.4
20260905191823 25 13 4.8 4.8 0.00 0.00 0.00 78 1016.4
20260905191323 26 13 1.6 3.2 0.00 0.00 0.00 77 1016.2
20260905190823 26 13 0.0 0.0 0.00 0.00 0.00 76 1016.2
20260905190326 26 13 0.0 0.0 0.00 0.00 0.00 75 1016.2
20260905185826 26 13 0.0 4.8 0.00 0.00 0.00 75 1016.1
20260905185326 26 13 3.2 4.8 0.00 0.00 0.00 75 1016.1
20260905184823 26 0 3.2 4.8 0.00 0.00 0.00 75 1016.1
20260905184323 27 304 0.0 8.0 0.00 0.00 0.00 74 1015.8
20260905183823 27 299 4.8 9.7 0.00 0.00 0.00 73 1015.8
20260905183326 27 303 4.8 8.0 0.00 0.00 0.00 72 1015.8
20260905182826 27 296 4.8 9.7 0.00 0.00 0.00 70 1015.7
20260905182326 27 292 6.4 11.3 0.00 0.00 0.00 69 1015.7
20260905181823 27 293 6.4 12.9 0.00 0.00 0.00 68 1015.7
20260905181323 28 291 8.0 11.3 0.00 0.00 0.00 66 1015.6
20260905180826 28 299 9.7 11.3 0.00 0.00 0.00 65 1015.6
20260905180326 28 286 11.3 12.9 0.00 0.00 0.00 64 1015.6
20260905175826 28 291 6.4 9.7 0.00 0.00 0.00 63 1015.6
20260905175323 28 286 4.8 8.0 0.00 0.00 0.00 63 1015.6
20260905174823 28 280 9.7 9.7 0.00 0.00 0.00 62 1015.6
20260905174323 29 277 8.0 9.7 0.00 0.00 0.00 60 1015.5
20260905173823 29 310 8.0 11.3 0.00 0.00 0.00 59 1015.5
20260905173323 30 306 4.8 9.7 0.00 0.00 0.00 56 1015.5
20260905172826 30 294 4.8 8.0 0.00 0.00 0.00 54 1015.4
20260905172323 30 293 4.8 8.0 0.00 0.00 0.00 53 1015.4
20260905171826 30 286 6.4 9.7 0.00 0.00 0.00 53 1015.4
20260905171326 31 292 4.8 8.0 0.00 0.00 0.00 53 1015.2
20260905170825 31 286 3.2 11.3 0.00 0.00 0.00 52 1015.2
20260905170325 31 286 4.8 11.3 0.00 0.00 0.00 51 1015.2
20260905165823 31 277 8.0 12.9 0.00 0.00 0.00 51 1015.2
20260905165322 31 286 6.4 11.3 0.00 0.00 0.00 50 1015.2
20260905164825 31 296 8.0 12.9 0.00 0.00 0.00 50 1015.2
20260905164325 32 295 4.8 11.3 0.00 0.00 0.00 50 1015.1
20260905163823 32 269 8.0 12.9 0.00 0.00 0.00 49 1015.1
20260905163323 32 275 12.9 14.5 0.00 0.00 0.00 49 1015.1
20260905162825 32 302 12.9 14.5 0.00 0.00 0.00 49 1015.2
20260905162325 32 294 6.4 12.9 0.00 0.00 0.00 51 1015.2
20260905161822 32 252 8.0 16.1 0.00 0.00 0.00 53 1015.2
20260905161322 32 269 11.3 16.1 0.00 0.00 0.00 52 1015.3
20260905160822 32 271 8.0 14.5 0.00 0.00 0.00 51 1015.3
20260905160322 32 313 8.0 14.5 0.00 0.00 0.00 49 1015.3
20260905155825 32 311 9.7 16.1 0.00 0.00 0.00 49 1015.4
20260905155322 32 291 6.4 16.1 0.00 0.00 0.00 49 1015.4
20260905154822 33 314 6.4 11.3 0.00 0.00 0.00 48 1015.4
20260905154325 32 302 1.6 14.5 0.00 0.00 0.00 46 1015.3
20260905153825 32 292 9.7 17.7 0.00 0.00 0.00 49 1015.3
20260905153325 32 319 11.3 14.5 0.00 0.00 0.00 46 1015.3
20260905152822 32 299 11.3 16.1 0.00 0.00 0.00 48 1015.4
20260905152325 33 285 8.0 16.1 0.00 0.00 0.00 50 1015.4
20260905151822 32 270 12.9 19.3 0.00 0.00 0.00 51 1015.4
20260905151322 32 274 19.3 20.9 0.00 0.00 0.00 50 1015.4
20260905150822 32 277 16.1 22.5 0.00 0.00 0.00 51 1015.4
20260905150322 32 271 14.5 19.3 0.00 0.00 0.00 48 1015.4
20260905145825 32 297 11.3 22.5 0.00 0.00 0.00 50 1015.4
20260905145322 33 274 12.9 22.5 0.00 0.00 0.00 48 1015.4
20260905144822 33 307 17.7 19.3 0.00 0.00 0.00 46 1015.4
20260905144325 33 269 14.5 20.9 0.00 0.00 0.00 45 1015.4
20260905143822 33 263 16.1 22.5 0.00 0.00 0.00 43 1015.4
20260905143326 33 304 12.9 22.5 0.00 0.00 0.00 43 1015.4
20260905142825 33 277 12.9 20.9 0.00 0.00 0.00 44 1015.5
20260905142325 33 296 14.5 22.5 0.00 0.00 0.00 43 1015.5
20260905141822 34 259 16.1 24.1 0.00 0.00 0.00 42 1015.5
20260905141325 34 274 8.0 20.9 0.00 0.00 0.00 42 1015.5
20260905140822 33 282 8.0 25.7 0.00 0.00 0.00 37 1015.5
20260905140325 33 248 11.3 25.7 0.00 0.00 0.00 43 1015.5
20260905135822 33 254 12.9 19.3 0.00 0.00 0.00 44 1015.6
20260905135322 33 252 9.7 20.9 0.00 0.00 0.00 45 1015.6
20260905134822 33 281 8.0 25.7 0.00 0.00 0.00 47 1015.6
20260905134322 33 254 9.7 19.3 0.00 0.00 0.00 48 1015.6
20260905133825 33 225 12.9 20.9 0.00 0.00 0.00 49 1015.6
20260905133322 33 265 20.9 20.9 0.00 0.00 0.00 49 1015.6
20260905132822 33 250 12.9 19.3 0.00 0.00 0.00 49 1015.6
20260905132322 33 248 9.7 17.7 0.00 0.00 0.00 48 1015.5
20260905131822 33 256 9.7 17.7 0.00 0.00 0.00 47 1015.5
20260905131325 34 257 16.1 19.3 0.00 0.00 0.00 44 1015.7
20260905130822 34 242 6.4 19.3 0.00 0.00 0.00 45 1015.7
20260905130322 34 273 8.0 16.1 0.00 0.00 0.00 44 1015.7
20260905125822 34 245 4.8 16.1 0.00 0.00 0.00 44 1015.8
20260905125325 33 248 4.8 14.5 0.00 0.00 0.00 45 1015.8
20260905124822 33 293 3.2 16.1 0.00 0.00 0.00 46 1015.8
20260905124322 34 251 11.3 19.3 0.00 0.00 0.00 41 1015.9
20260905123825 34 262 14.5 14.5 0.00 0.00 0.00 46 1015.9
20260905123322 33 254 9.7 17.7 0.00 0.00 0.00 47 1015.9
20260905122822 33 239 6.4 12.9 0.00 0.00 0.00 46 1016.0
20260905122322 33 232 8.0 17.7 0.00 0.00 0.00 46 1016.0
20260905121825 33 251 4.8 16.1 0.00 0.00 0.00 46 1016.0
20260905121325 33 241 6.4 19.3 0.00 0.00 0.00 44 1016.0
20260905120825 33 205 8.0 20.9 0.00 0.00 0.00 45 1016.0
20260905120325 33 288 12.9 19.3 0.00 0.00 0.00 44 1016.0
20260905115825 33 269 16.1 22.5 0.00 0.00 0.00 45 1016.0
20260905115325 33 272 6.4 20.9 0.00 0.00 0.00 42 1016.0
20260905114822 33 231 17.7 20.9 0.00 0.00 0.00 45 1016.0
20260905114325 33 244 4.8 16.1 0.00 0.00 0.00 43 1016.0
20260905113825 33 277 12.9 19.3 0.00 0.00 0.00 42 1016.0
20260905113322 33 247 11.3 19.3 0.00 0.00 0.00 44 1016.0
20260905112822 33 240 12.9 19.3 0.00 0.00 0.00 43 1016.0
20260905112325 33 246 11.3 16.1 0.00 0.00 0.00 41 1016.0
20260905111821 34 239 4.8 12.9 0.00 0.00 0.00 38 1016.0
20260905111324 34 217 12.9 16.1 0.00 0.00 0.00 37 1016.0
20260905110821 33 209 9.7 16.1 0.00 0.00 0.00 37 1016.0
20260905110324 34 226 16.1 16.1 0.00 0.00 0.00 38 1016.0
20260905105824 34 189 8.0 16.1 0.00 0.00 0.00 37 1016.1
20260905105321 33 248 11.3 14.5 0.00 0.00 0.00 37 1016.1
20260905104824 33 254 8.0 12.9 0.00 0.00 0.00 36 1016.1
20260905104324 34 231 3.2 16.1 0.00 0.00 0.00 37 1016.1
20260905103824 34 215 4.8 12.9 0.00 0.00 0.00 38 1016.1
20260905103321 33 209 8.0 16.1 0.00 0.00 0.00 38 1016.1
20260905102821 33 246 4.8 14.5 0.00 0.00 0.00 38 1016.3
20260905102321 33 246 6.4 16.1 0.00 0.00 0.00 39 1016.3
20260905101821 33 250 9.7 12.9 0.00 0.00 0.00 39 1016.3
20260905101324 33 246 12.9 12.9 0.00 0.00 0.00 39 1016.5
20260905100824 33 286 1.6 12.9 0.00 0.00 0.00 41 1016.5
20260905100324 33 254 11.3 16.1 0.00 0.00 0.00 39 1016.5
20260905095821 33 261 4.8 16.1 0.00 0.00 0.00 40 1016.4
20260905095324 33 265 4.8 11.3 0.00 0.00 0.00 41 1016.4
20260905094824 33 278 4.8 9.7 0.00 0.00 0.00 41 1016.4
20260905094321 33 293 1.6 16.1 0.00 0.00 0.00 41 1016.5
20260905093821 33 12 0.0 8.0 0.00 0.00 0.00 38 1016.5
20260905093324 33 296 0.0 9.7 0.00 0.00 0.00 38 1016.5
20260905092824 33 272 8.0 11.3 0.00 0.00 0.00 38 1016.5
20260905092322 33 205 3.2 12.9 0.00 0.00 0.00 37 1016.5
20260905091821 33 308 3.2 8.0 0.00 0.00 0.00 36 1016.5
20260905091321 33 229 6.4 8.0 0.00 0.00 0.00 38 1016.3
20260905090821 33 204 4.8 6.4 0.00 0.00 0.00 41 1016.3
20260905090324 32 236 4.8 8.0 0.00 0.00 0.00 42 1016.3
20260905085821 32 168 4.8 9.7 0.00 0.00 0.00 42 1016.3
20260905085324 32 157 0.0 11.3 0.00 0.00 0.00 41 1016.3
20260905084824 32 178 1.6 3.2 0.00 0.00 0.00 42 1016.3
20260905084324 32 202 1.6 6.4 0.00 0.00 0.00 45 1016.3
20260905083825 32 152 4.8 6.4 0.00 0.00 0.00 46 1016.3